Location: Elbart
(49.6135°N, 11.9134°E)
Time: 13:40:10
(UTC+00:00)

STARLINK-1244 - Visible Passes

Search period start: 06 August 2020 00:00
Search period end: 16 August 2020 00:00
Orbit: 549 x 550 km, 53.0° (Epoch: 06 August)

Date Brightness Start Highest point End Pass type
(mag) Time Alt. Az. Time Alt. Az. Time Alt. Az.
06 Aug 5.6 01:26:00 10° WNW 01:26:51 15° W 01:26:51 15° W visible
06 Aug 3.7 20:21:00 10° WSW 20:25:10 79° NNW 20:29:20 10° ENE visible
06 Aug 4.4 22:01:00 10° WNW 22:05:04 52° N 22:08:36 13° ENE visible
06 Aug 3.9 23:40:45 10° WNW 23:44:10 59° WNW 23:44:10 59° WNW visible
07 Aug 3.9 20:15:36 10° W 20:19:44 69° NNW 20:23:53 10° ENE visible
07 Aug 4.3 21:55:36 10° WNW 21:59:40 53° N 22:02:16 21° ENE visible
07 Aug 4.7 23:35:19 10° WNW 23:37:52 36° WNW 23:37:52 36° WNW visible
08 Aug 4.1 20:10:15 10° W 20:14:23 62° NNW 20:18:30 10° ENE visible
08 Aug 4.2 21:50:15 10° WNW 21:54:20 55° N 21:56:17 28° ENE visible
08 Aug 5.2 23:29:56 10° WNW 23:31:53 27° WNW 23:31:53 27° WNW visible
09 Aug 4.2 20:04:58 10° W 20:09:03 57° N 20:13:10 10° ENE visible
09 Aug 4.1 21:44:55 10° WNW 21:49:02 59° NNE 21:50:29 36° ENE visible
09 Aug 5.5 23:24:35 10° WNW 23:26:06 21° WNW 23:26:06 21° WNW visible
10 Aug 4.3 19:59:43 10° W 20:03:48 54° N 20:07:53 10° ENE visible
10 Aug 3.9 21:39:37 10° WNW 21:43:45 65° NNE 21:44:48 45° ENE visible
10 Aug 5.8 23:19:19 10° WNW 23:20:25 17° WNW 23:20:25 17° WNW visible
11 Aug 4.4 19:54:31 10° W 19:58:34 52° N 20:02:39 10° ENE visible
11 Aug 3.7 21:34:21 10° WNW 21:38:31 73° NNE 21:39:14 57° E visible
11 Aug 6.0 23:14:07 10° WNW 23:14:52 14° W 23:14:52 14° W visible
12 Aug 4.4 19:49:20 10° WNW 19:53:24 52° N 19:57:28 10° ENE visible
12 Aug 3.5 21:29:07 10° WNW 21:33:18 83° NNE 21:33:45 69° E visible
12 Aug 6.2 23:09:01 10° W 23:09:23 12° W 23:09:23 12° W visible
13 Aug 4.3 19:44:12 10° WNW 19:48:16 53° N 19:52:20 10° E visible
13 Aug 3.4 21:23:56 10° WNW 21:28:06 84° SSW 21:28:20 78° SE visible
14 Aug 4.2 19:39:05 10° WNW 19:43:10 55° N 19:47:16 10° E visible
14 Aug 3.5 21:18:48 10° WNW 21:22:56 71° SSW 21:23:00 70° SSW visible
15 Aug 4.1 19:34:01 10° WNW 19:38:08 59° NNE 19:42:06 11° E visible
15 Aug 3.7 21:13:42 10° WNW 21:17:45 57° SSW 21:17:45 57° SSW visible
